METAR LSZS 231220Z 23007KT 120V290 9999 SCT065 16/M00 Q1021 RMK
Diese Daten sind ohne Gewähr und dürfen nicht für die Flugvorbereitung verwendet werden.
Information contained in this website shall not be used for flight operation purposes.